Location: Lynch Observatory
(39.9540°N, 75.1861°W)
Time: 11:20:37
(UTC-04:00)

CAS-4B - Pass Details

Date: 22 April 2024
Orbit: 474 x 492 km, 43.0° (Epoch: 26 May)

Event Time Altitude Azimuth Distance (km) Brightness Sun altitude
Exits shadow 02:35:50 - 76° (ENE) 1,929 ? -33.1°
Enters shadow 03:36:02 -62° 255° (WSW) 11,765 ? -26.2°
Maximum altitude 04:10:31 59° 350° (N) 562 ? -21.4°
